Location: ???????
(55.4362°N, 38.1183°E)
Time: 03:36:53
(UTC+00:00)

Cosmos 1707 - Pass Details

Date: 17 June 2021
Orbit: 514 x 529 km, 82.5° (Epoch: 26 July)

Event Time Altitude Azimuth Distance (km) Brightness Sun altitude
Rises 19:07:52 0° 214° (SSW) 2,654 6.1 -5.7°
Reaches altitude 10° 19:10:08 10° 223° (SW) 1,772 5.3 -5.8°
Maximum altitude 19:13:43 35° 291° (WNW) 873 4.4 -6.1°
Drops below altitude 10° 19:17:22 10° 358° (N) 1,791 6.6 -6.3°
Sets 19:19:40 0° 7° (N) 2,688 7.3 -6.5°
